Location: Gallinara
(44.0333°N, 8.2333°E)
Time: 17:17:47
(UTC+00:00)

SL-4 R/B - Pass Details

Date: 25 September 2020
Orbit: 427 x 666 km, 51.6° (Epoch: 29 October)

Event Time Altitude Azimuth Distance (km) Brightness Sun altitude
Exits shadow 02:21:42 34° 76° (ENE) 1,037 3.8 -30.9°
Drops below altitude 10° 02:24:30 10° 63° (ENE) 2,038 5.8 -30.5°
Sets 02:26:56 0° 60° (ENE) 2,974 7.0 -30.1°
